This is the latest recevied weather packets stored in our database for station/object JA0BES-13. If no packets are shown the sender has not sent any weather packets the latest 10 day(s).
| Time | Temp. | Humidity | Pressure | Rain* | Wind** | Luminosity | Snow |
|---|---|---|---|---|---|---|---|
| 1777411171 | 13.89° C | 94% | 1010.2 hPa | 0 mm | - | - | - |
| 1777410571 | 13.89° C | 96% | 1009.9 hPa | 0 mm | - | - | - |
| 1777377548 | 15.56° C | 92% | 1009.4 hPa | 0 mm | - | - | - |
| 1777376347 | 16.11° C | 90% | 1009.2 hPa | 0 mm | - | - | - |
| 1777375146 | 16.67° C | 89% | 1008.5 hPa | 0 mm | - | - | - |
| 1777374546 | 16.67° C | 89% | 1008.3 hPa | 0 mm | - | - | - |
| 1777373946 | 16.67° C | 88% | 1008.4 hPa | 0 mm | - | - | - |
| 1777373346 | 16.67° C | 87% | 1008.2 hPa | 0 mm | - | - | - |
| 1777372745 | 16.67° C | 86% | 1008.1 hPa | 0 mm | - | - | - |
| 1777372145 | 17.22° C | 86% | 1007.9 hPa | 0 mm | - | - | - |
| 1777371544 | 17.22° C | 85% | 1007.8 hPa | 0 mm | - | - | - |
| 1777370944 | 17.22° C | 85% | 1007.8 hPa | 0 mm | - | - | - |
| 1777370344 | 17.78° C | 84% | 1007.7 hPa | 0 mm | - | - | - |
| 1777369744 | 17.78° C | 84% | 1007.5 hPa | 0 mm | - | - | - |
| 1777369143 | 18.33° C | 83% | 1007.2 hPa | 0 mm | - | - | - |
| 1777368543 | 18.33° C | 82% | 1007 hPa | 0 mm | - | - | - |
| 1777367942 | 18.89° C | 80% | 1007 hPa | 0 mm | - | - | - |
| 1777367342 | 18.89° C | 79% | 1007 hPa | 0 mm | - | - | - |
| 1777366741 | 19.44° C | 78% | 1007 hPa | 0 mm | - | - | - |
| 1777366142 | 19.44° C | 76% | 1006.9 hPa | 0 mm | - | - | - |
| 1777365541 | 20° C | 75% | 1006.7 hPa | 0 mm | - | - | - |
| 1777364941 | 20° C | 73% | 1006.6 hPa | 0 mm | - | - | - |
| 1777364340 | 20.56° C | 73% | 1006.6 hPa | 0 mm | - | - | - |
| 1777363136 | 21.11° C | 69% | 1006.5 hPa | 0 mm | - | - | - |
| 1777362536 | 21.11° C | 68% | 1006.3 hPa | 0 mm | - | - | - |
* Rain since midnight (hover to see other rain measurements)
** Current wind speed in m/s (hover to see current wind gust speed)